FW3698 Weather Reports


time (UTC)temp
F
wind
direction
speed
knots
gust
knots
rain 1hr
in
rain 24hr
in
rain mn
in
humidity
%
barometer
mb
20260506032123 67 225 0.0 0.0 0.00 0.00 0.00 74 1013.0
20260506031124 65 270 0.0 1.7 0.00 0.00 0.00 78 1012.8
20260506030122 65 203 0.0 0.0 0.00 0.00 0.00 77 1012.7
20260506025124 65 227 0.0 2.6 0.00 0.00 0.00 77 1012.7
20260506024144 65 223 0.9 2.6 0.00 0.00 0.00 76 1012.8
20260506023122 66 221 1.7 3.5 0.00 0.00 0.00 76 1012.8
20260506022145 67 210 1.7 3.5 0.00 0.00 0.00 75 1012.8
20260506021122 67 223 1.7 5.2 0.00 0.00 0.00 74 1012.7
20260506020143 67 223 2.6 6.1 0.00 0.00 0.00 73 1012.7
20260506015123 68 224 1.7 4.3 0.00 0.00 0.00 72 1012.7
20260506014122 69 216 0.9 2.6 0.00 0.00 0.00 71 1012.8
20260506013122 70 238 0.9 3.5 0.00 0.00 0.00 69 1012.9
20260506012124 72 224 1.7 5.2 0.00 0.00 0.00 66 1012.9
20260506011122 70 233 1.7 4.3 0.00 0.00 0.00 68 1012.9
20260506010122 69 219 1.7 5.2 0.00 0.00 0.00 70 1012.9
20260506005124 69 218 2.6 7.0 0.00 0.00 0.00 72 1012.9
20260506004122 69 228 2.6 6.1 0.00 0.00 0.00 70 1013.0
20260506003122 70 240 1.7 4.3 0.00 0.00 0.00 68 1013.0
20260506002123 71 241 0.9 5.2 0.00 0.00 0.00 67 1013.0
20260506001122 71 306 0.9 3.5 0.00 0.00 0.00 67 1013.1
20260506000145 71 235 1.7 5.2 0.00 0.00 0.00 68 1013.1
20260505235123 71 344 0.9 2.6 0.00 0.00 0.00 67 1013.1
20260505234122 68 229 2.6 6.1 0.00 0.00 0.00 72 1013.2
20260505233145 69 224 1.7 4.3 0.00 0.00 0.00 70 1013.4
20260505232122 69 219 2.6 6.1 0.00 0.00 0.00 70 1013.4
20260505231143 69 239 1.7 3.5 0.00 0.00 0.00 70 1013.5
20260505230123 70 262 0.9 2.6 0.00 0.00 0.00 69 1013.7
20260505225144 70 273 0.9 3.5 0.00 0.00 0.00 70 1013.7
20260505224122 70 264 1.7 3.5 0.00 0.00 0.00 69 1013.8
20260505223122 69 251 1.7 7.0 0.00 0.00 0.00 71 1014.0
20260505222122 70 249 1.7 5.2 0.00 0.00 0.00 70 1014.0
20260505221124 69 261 1.7 4.3 0.00 0.00 0.00 70 1014.1
20260505220124 70 274 0.9 2.6 0.00 0.00 0.00 69 1014.1
20260505215122 69 258 1.7 5.2 0.00 0.00 0.00 70 1014.1
20260505214123 67 236 1.7 6.1 0.00 0.00 0.00 73 1014.2
20260505213123 68 265 0.9 3.5 0.00 0.00 0.00 72 1014.2
20260505212123 67 250 1.7 4.3 0.00 0.00 0.00 73 1014.2
20260505211122 67 248 1.7 3.5 0.00 0.00 0.00 74 1014.5
20260505210122 67 242 1.7 5.2 0.00 0.00 0.00 75 1014.4
20260505205124 67 249 0.9 4.3 0.00 0.00 0.00 74 1014.4
20260505204124 67 246 1.7 5.2 0.00 0.00 0.00 74 1014.5
20260505203124 66 241 2.6 7.8 0.00 0.00 0.00 76 1014.5
20260505202122 67 254 1.7 5.2 0.00 0.00 0.00 74 1014.5
20260505201143 65 258 1.7 7.0 0.00 0.00 0.00 76 1014.6
20260505200123 65 259 1.7 5.2 0.00 0.00 0.00 76 1014.6
20260505195124 66 262 0.9 6.1 0.00 0.00 0.00 76 1014.6
20260505194122 65 255 1.7 7.0 0.00 0.00 0.00 77 1014.6
20260505193143 66 266 1.7 7.0 0.00 0.00 0.00 76 1014.7
20260505192122 64 231 0.9 4.3 0.00 0.00 0.00 78 1014.6
20260505191122 64 246 1.7 5.2 0.00 0.00 0.00 78 1014.6
20260505190143 64 238 0.9 4.3 0.00 0.00 0.00 78 1014.5
20260505185124 64 251 0.9 3.5 0.00 0.00 0.00 77 1014.5
20260505184123 65 254 0.0 3.5 0.00 0.00 0.00 77 1014.5
20260505183143 64 240 0.0 3.5 0.00 0.00 0.00 78 1014.5
20260505182124 64 226 0.9 2.6 0.00 0.00 0.00 78 1014.4
20260505181122 63 205 0.9 3.5 0.00 0.00 0.00 79 1014.2
20260505180122 64 202 0.9 2.6 0.00 0.00 0.00 79 1014.4
20260505175123 65 202 0.0 3.5 0.00 0.00 0.00 76 1014.4
20260505174143 65 202 0.0 2.6 0.00 0.00 0.00 76 1014.4
20260505173122 64 202 0.0 2.6 0.00 0.00 0.00 76 1014.4
20260505172144 63 202 0.0 2.6 0.00 0.00 0.00 76 1014.2
20260505171122 63 202 0.0 2.6 0.00 0.00 0.00 76 1014.4
20260505170122 63 202 0.0 2.6 0.00 0.00 0.00 76 1014.2
20260505165123 63 202 0.9 3.5 0.00 0.00 0.00 76 1014.2
20260505164122 63 202 0.0 3.5 0.00 0.00 0.00 75 1014.2
20260505163123 63 202 0.0 2.6 0.00 0.00 0.00 76 1014.1
20260505162123 63 203 0.0 0.0 0.00 0.00 0.00 76 1014.0
20260505161122 61 113 0.0 0.0 0.00 0.00 0.00 78 1014.0
20260505160124 61 113 0.0 0.0 0.00 0.00 0.00 77 1013.9
20260505153124 58 113 0.0 0.0 0.00 0.00 0.00 83 1013.8
20260505152123 58 113 0.0 0.0 0.00 0.00 0.00 84 1013.6
20260505151123 58 113 0.0 0.0 0.00 0.00 0.00 85 1013.6
20260505150123 58 113 0.0 0.0 0.00 0.00 0.00 85 1013.4
20260505140122 56 113 0.0 0.0 0.00 0.00 0.00 86 1012.6
20260505130122 56 113 0.0 0.0 0.00 0.00 0.00 84 1011.9
20260505124122 56 113 0.0 0.0 0.00 0.00 0.00 84 1011.8
20260505123122 57 113 0.0 0.0 0.00 0.00 0.00 85 1011.7
20260505122144 57 113 0.0 0.0 0.00 0.00 0.00 84 1011.6
20260505121122 57 113 0.0 0.0 0.00 0.00 0.00 83 1011.5
20260505120122 57 113 0.0 0.0 0.00 0.00 0.00 83 1011.2
20260505115123 57 113 0.0 0.0 0.00 0.00 0.00 82 1011.2
20260505114124 58 113 0.0 0.0 0.00 0.00 0.00 80 1011.2
20260505113122 58 113 0.0 0.0 0.00 0.00 0.00 82 1011.2
20260505112122 58 113 0.0 0.0 0.00 0.00 0.00 81 1011.2
20260505111123 58 113 0.0 0.0 0.00 0.00 0.00 78 1011.2
20260505110123 58 113 0.0 0.0 0.00 0.00 0.00 77 1011.2
20260505102123 58 113 0.0 0.0 0.00 0.00 0.00 77 1010.7
20260505101143 58 113 0.0 0.0 0.00 0.00 0.00 77 1010.7
20260505100122 59 113 0.0 0.0 0.00 0.00 0.00 75 1010.5
20260505095123 59 113 0.0 0.0 0.00 0.00 0.00 76 1010.5
20260505094123 59 113 0.0 0.0 0.00 0.00 0.00 74 1010.2
20260505093122 59 113 0.0 0.0 0.00 0.00 0.00 72 1010.2
20260505092123 60 113 0.0 0.0 0.00 0.00 0.00 73 1010.1
20260505091123 60 113 0.0 0.0 0.00 0.00 0.00 73 1009.9
20260505090122 60 113 0.0 1.7 0.00 0.00 0.00 73 1009.8
20260505085123 60 113 0.0 0.0 0.00 0.00 0.00 71 1009.8
20260505084143 60 113 0.0 0.0 0.00 0.00 0.00 69 1009.7
20260505083122 61 113 0.0 0.0 0.00 0.00 0.00 69 1009.5
20260505082125 61 113 0.0 0.0 0.00 0.00 0.00 69 1009.5
20260505081122 61 113 0.0 0.0 0.00 0.00 0.00 65 1009.5
20260505080123 62 113 0.0 0.0 0.00 0.00 0.00 66 1009.2
20260505075123 62 113 0.0 0.0 0.00 0.00 0.00 67 1009.2
20260505074122 62 113 0.0 0.0 0.00 0.00 0.00 65 1009.4
20260505073124 62 113 0.0 0.0 0.00 0.00 0.00 64 1009.2
20260505072122 62 113 0.0 0.0 0.00 0.00 0.00 63 1009.1
20260505071144 62 113 0.0 0.0 0.00 0.00 0.00 62 1009.0
20260505070122 62 113 0.0 0.0 0.00 0.00 0.00 63 1009.0
20260505065122 62 113 0.0 0.0 0.00 0.00 0.00 62 1009.0
20260505064124 62 113 0.0 0.0 0.00 0.00 0.00 62 1009.0
20260505063143 62 113 0.0 0.0 0.00 0.00 0.00 64 1008.7
20260505062123 63 113 0.0 0.0 0.00 0.00 0.00 59 1008.7
20260505061122 63 113 0.0 0.0 0.00 0.00 0.00 59 1008.7
20260505060124 64 113 0.0 0.0 0.00 0.00 0.00 59 1008.6
20260505055124 64 113 0.0 0.0 0.00 0.00 0.00 59 1008.6
20260505054122 65 113 0.0 0.0 0.00 0.00 0.00 57 1008.5
20260505053124 65 113 0.0 0.0 0.00 0.00 0.00 57 1008.5
20260505052144 65 113 0.0 0.0 0.00 0.00 0.00 57 1008.4
20260505051122 65 113 0.0 0.0 0.00 0.00 0.00 58 1008.2
20260505050123 66 113 0.0 0.0 0.00 0.00 0.00 57 1008.1
20260505041122 68 113 0.0 0.0 0.00 0.00 0.00 57 1007.8
20260505040145 69 113 0.0 0.0 0.00 0.00 0.00 57 1007.7
20260505035123 71 113 0.0 0.0 0.00 0.00 0.00 56 1007.7
20260505034144 74 113 0.0 0.0 0.00 0.00 0.00 52 1007.6
20260505033124 76 113 0.0 0.0 0.00 0.00 0.00 51 1007.6